Location: Enborne
(51.3833°N, 1.3667°W)
Time: 13:17:38
(UTC+00:00)

USA 186 - Pass Details

Date: 18 September 2020
Orbit: 261 x 425 km, 96.9° (Epoch: 12 October)

Event Time Altitude Azimuth Distance (km) Brightness Sun altitude
Exits shadow 20:20:54 - 209° (SSW) 1,617 4.7 -20.0°
Reaches altitude 10° 20:21:23 10° 214° (SW) 1,450 4.5 -20.0°
Maximum altitude 20:23:52 22° 267° (W) 972 4.2 -20.4°
Drops below altitude 10° 20:26:27 10° 320° (NW) 1,511 5.6 -20.7°
Sets 20:28:49 0° 336° (NNW) 2,399 6.5 -21.0°
